Flag for U.S.A. Weather past 2 weeks in Santa Cruz, California, U.S.A.

Now
49 °F

Clear.


Feels Like: 49 °F
Forecast: 52 / 65 °F
Wind: No wind

Location: Watsonville Municipal Airport

Current Time: May 24, 2015 at 2:50:22 AM

Latest Report: May 24, 2015 at 1:53 AM


Visibility: 10 mi

Pressure: 30.05 "Hg

Humidity: 90%

Dew point: 46 °F

Location of Santa CruzLocation

Historic Weather in Santa Cruz — Graph

°F

Santa Cruz temperature yesterday

Maximum temperature yesterday: 65 °F (at 1:53 PM)
Minimum temperature yesterday: 51 °F (at 11:53 PM)
Average temperature yesterday: 57 °F

Past Weeks' High & Low Weather Summary

 TemperatureHumidityPressure
High67 °F (May 11, 2:53 PM)93% (May 16, 2:53 AM)30.14 "Hg (May 16, 2:53 AM)
Low42 °F (May 12, 5:53 AM)42% (May 12, 12:53 PM)29.82 "Hg (May 14, 6:53 PM)
Average56 °F76%30.01 "Hg
* Reported May 9 1:53 AM — May 24 1:53 AM, Santa Cruz, Weather by CustomWeather, © 2015

Note: Actual official high and low records may vary slightly from our data, if they occured in-between our weather recording intervals... More about our weather records

Advertising

Santa Cruz weather history for previous 24 hours

 ConditionsComfort  
Time TempWeatherWind HumidityBarometerVisibility
1:53 AM
Sun, May 24
49 °FClear.No wind90%30.05 "Hg10 mi
12:53 AM50 °FClear.No wind89%30.06 "Hg10 mi
11:53 PM
Sat, May 23
51 °FClear.5 mph89%30.07 "Hg10 mi
10:53 PM52 °FClear.No wind86%30.08 "Hg10 mi
9:53 PM52 °FClear.No wind83%30.08 "Hg10 mi
8:53 PM54 °FSunny.No wind77%30.07 "Hg10 mi
7:53 PM56 °FSunny.5 mph77%30.06 "Hg10 mi
6:53 PM60 °FPassing clouds.9 mph67%30.05 "Hg10 mi
5:53 PM62 °FSunny.10 mph62%30.06 "Hg10 mi
4:53 PM65 °FMild.10 mph56%30.06 "Hg10 mi
3:53 PM63 °FOvercast.5 mph60%30.07 "Hg10 mi
2:53 PM63 °FOvercast.10 mph63%30.09 "Hg10 mi
1:53 PM65 °FOvercast.17 mph59%30.11 "Hg10 mi
12:53 PM63 °FOvercast.9 mph63%30.12 "Hg10 mi
11:53 AM60 °FOvercast.9 mph67%30.13 "Hg10 mi
10:53 AM59 °FOvercast.9 mph72%30.13 "Hg10 mi
9:53 AM58 °FOvercast.9 mph75%30.12 "Hg10 mi
8:53 AM57 °FOvercast.6 mph81%30.12 "Hg10 mi
7:53 AM56 °FMostly cloudy.5 mph87%30.11 "Hg10 mi
6:53 AM55 °FLow clouds.6 mph90%30.11 "Hg10 mi
5:53 AM55 °FOvercast.5 mph87%30.09 "Hg10 mi
4:53 AM54 °FOvercast.No wind90%30.09 "Hg10 mi
3:53 AM54 °FOvercast.No wind90%30.09 "Hg10 mi
2:53 AM54 °FOvercast.No wind90%30.09 "Hg10 mi
Weather by CustomWeather, © 2015

See weather overviewHow to use our weather pages